Total_Precipitation_Accumulation
1.63 1.61 1.44 1.39 1.28 1.33 1.46 1.58 1.63 1.71 1.76 1.73 1.64 1.78 1.82 1.96 2.09 2.25 2.67 2.95 3.26 3.84 4.18 4.05 3.68 3.40 3.26 3.22 3.43 3.30 3.31 3.41 3.32 3.30 3.27 3.18 3.09 2.97 2.93 2.88 2.84 2.77 2.79
1.52 1.57 1.50 1.50 1.45 1.43 1.53 1.52 1.44 1.60 1.79 1.73 1.62 1.59 1.63 1.76 1.94 2.00 2.22 2.50 2.83 3.24 4.01 4.38 4.23 3.97 3.96 3.79 4.01 3.91 3.69 3.43 3.26 3.33 3.28 3.22 3.23 3.05 2.88 2.73 2.70 2.56 2.53
1.33 1.42 1.47 1.43 1.43 1.51 1.54 1.60 1.43 1.49 1.53 1.56 1.59 1.56 1.49 1.57 1.67 1.76 1.73 1.84 2.06 2.50 3.25 4.00 4.48 4.48 4.49 4.42 4.30 4.02 3.82 3.56 3.36 3.30 3.18 3.02 3.09 3.05 2.86 2.77 2.63 2.65 2.57
1.21 1.37 1.41 1.35 1.32 1.49 1.63 1.73 1.63 1.61 1.59 1.60 1.64 1.67 1.58 1.60 1.51 1.59 1.62 1.59 1.81 1.85 2.34 3.06 3.65 3.94 4.32 4.54 4.40 4.13 3.84 3.50 3.21 3.13 3.05 2.86 2.88 2.90 2.81 2.88 2.74 2.63 2.54
1.28 1.46 1.57 1.56 1.52 1.54 1.59 1.58 1.67 1.70 1.70 1.71 1.64 1.65 1.65 1.62 1.67 1.57 1.63 1.64 1.60 1.72 1.95 2.27 2.76 3.18 3.60 3.87 4.05 4.25 4.13 3.65 3.25 3.15 3.09 2.83 2.75 2.85 2.71 2.72 2.66 2.46 2.35
1.58 1.74 1.75 1.83 1.87 1.78 1.77 1.74 1.79 1.77 1.70 1.78 1.64 1.56 1.56 1.51 1.67 1.78 1.76 1.79 1.69 1.64 2.01 2.26 2.31 2.37 2.88 3.23 3.59 4.01 4.25 3.99 3.61 3.38 3.31 3.09 2.90 2.95 2.66 2.58 2.57 2.32 2.17
1.84 2.13 2.10 2.16 2.23 2.16 2.12 2.09 2.32 2.27 2.00 1.83 1.94 1.81 1.66 1.55 1.75 1.81 1.82 1.98 1.98 2.04 2.25 2.29 2.14 2.07 2.09 2.39 2.83 3.43 4.12 4.15 3.83 3.54 3.45 3.31 3.04 2.86 2.54 2.44 2.42 2.30 2.08
1.71 1.90 2.21 2.37 2.34 2.46 2.55 2.51 2.87 3.01 2.50 2.07 2.24 2.53 2.28 2.11 1.92 1.75 1.81 1.94 2.13 2.31 2.39 2.25 2.08 1.95 1.90 1.95 2.02 2.54 3.34 3.99 3.93 3.65 3.48 3.33 3.04 2.67 2.53 2.52 2.46 2.44 2.19
1.65 1.79 1.97 2.16 2.26 2.38 2.54 2.65 2.96 3.49 3.26 2.58 2.40 2.87 2.70 2.52 2.38 2.02 1.83 1.84 1.98 2.30 2.56 2.48 2.23 2.03 1.86 1.91 1.89 2.11 2.59 3.24 3.82 3.93 3.82 3.54 3.19 2.76 2.62 2.68 2.48 2.58 2.57
1.52 1.65 1.79 1.93 2.11 2.18 2.36 2.43 2.55 3.12 3.55 3.21 2.90 2.58 2.29 2.28 2.48 2.48 2.09 1.89 1.89 2.07 2.34 2.34 2.21 2.18 2.02 1.90 1.81 1.83 2.26 2.71 3.38 3.91 4.17 3.99 3.57 3.14 3.03 3.15 2.84 2.70 2.64
1.61 1.62 1.80 1.86 1.89 2.01 2.17 2.50 2.76 3.04 3.30 3.34 3.32 3.08 2.75 2.46 2.12 2.43 2.54 2.21 2.05 1.99 2.08 2.18 2.13 2.14 2.12 2.05 2.13 1.97 2.05 2.30 2.68 3.37 4.03 4.30 4.01 3.64 3.58 3.62 3.22 3.05 2.90
1.78 1.77 1.82 1.85 1.82 1.87 2.01 2.31 2.64 2.87 3.19 3.43 3.41 3.19 3.04 2.89 2.62 2.55 2.46 2.32 2.34 2.18 2.03 2.00 1.91 1.95 2.14 2.33 2.34 2.38 2.07 1.94 2.04 2.40 2.97 3.50 3.80 3.87 4.01 4.01 3.78 3.72 3.47
1.73 1.74 1.79 1.91 1.97 2.02 2.15 2.35 2.55 2.52 2.72 3.16 3.21 3.06 2.98 2.80 2.72 2.79 2.74 2.41 2.26 2.00 1.88 1.85 1.75 1.90 1.94 2.07 2.40 2.54 2.06 1.75 1.59 1.87 2.14 2.41 2.80 3.30 3.85 4.19 4.28 4.30 4.01
1.76 1.65 1.65 1.74 1.84 2.02 2.09 2.16 2.22 2.20 2.34 2.60 2.72 2.92 3.04 2.80 2.71 2.63 2.61 2.66 2.41 2.11 1.94 1.81 1.66 1.69 1.72 1.83 2.16 2.34 1.97 1.74 1.38 1.39 1.55 1.80 2.06 2.41 2.88 3.47 3.96 4.20 4.24
1.53 1.39 1.35 1.40 1.49 1.55 1.66 1.83 1.92 2.01 2.11 2.24 2.36 2.52 2.70 2.82 2.75 2.59 2.59 2.59 2.59 2.38 2.15 1.98 1.78 1.57 1.63 1.78 2.08 1.87 1.78 1.77 1.48 1.33 1.29 1.42 1.62 1.77 2.00 2.29 2.69 3.14 3.51
1.48 1.37 1.28 1.22 1.21 1.18 1.22 1.42 1.61 1.72 1.83 1.98 2.15 2.31 2.38 2.46 2.65 2.63 2.50 2.51 2.45 2.34 2.19 1.94 1.81 1.63 1.76 1.72 1.95 1.75 1.78 1.88 1.57 1.43 1.31 1.32 1.41 1.37 1.34 1.47 1.61 1.88 2.37
1.47 1.45 1.33 1.24 1.33 1.34 1.31 1.37 1.39 1.44 1.52 1.64 1.78 1.91 2.09 2.38 2.66 2.69 2.66 2.54 2.45 2.35 2.13 1.87 1.67 1.57 1.89 1.99 1.91 1.81 1.81 1.78 1.57 1.53 1.38 1.27 1.29 1.26 1.21 1.14 1.15 1.32 1.61
1.04 1.17 1.29 1.21 1.20 1.22 1.27 1.35 1.35 1.38 1.43 1.51 1.60 1.72 1.91 2.21 2.53 2.73 2.82 2.71 2.56 2.45 2.31 2.13 1.78 1.54 1.67 2.00 2.11 2.05 1.88 1.74 1.62 1.61 1.45 1.29 1.23 1.21 1.16 1.09 1.06 1.10 1.19
0.84 0.85 0.96 0.95 1.05 1.18 1.24 1.29 1.29 1.36 1.39 1.44 1.58 1.63 1.68 1.89 2.09 2.27 2.45 2.57 2.54 2.54 2.51 2.25 1.94 1.67 1.60 1.77 2.03 2.03 1.98 2.00 1.78 1.73 1.71 1.54 1.36 1.30 1.24 1.10 1.07 1.09 1.13
0.93 0.94 1.05 1.10 1.05 1.09 1.17 1.26 1.28 1.26 1.29 1.31 1.36 1.43 1.48 1.54 1.74 1.89 1.99 2.19 2.39 2.65 2.71 2.56 2.28 1.95 1.82 1.72 1.81 1.99 2.07 2.03 1.99 1.81 1.76 1.60 1.55 1.48 1.45 1.30 1.16 1.08 1.10
1.04 1.03 1.11 1.21 1.26 1.24 1.23 1.30 1.25 1.23 1.26 1.24 1.27 1.25 1.29 1.34 1.46 1.66 1.68 1.88 2.19 2.48 2.58 2.67 2.55 2.22 1.95 1.80 1.56 1.68 1.97 2.20 2.22 2.14 2.09 1.81 1.66 1.47 1.43 1.46 1.44 1.31 1.16
0.99 0.94 0.94 0.98 1.06 1.13 1.45 1.40 1.20 1.11 1.16 1.22 1.25 1.22 1.25 1.20 1.18 1.29 1.43 1.53 1.81 2.04 2.18 2.28 2.31 2.15 1.93 1.81 1.77 1.74 1.83 2.02 2.07 1.92 1.93 2.02 1.93 1.77 1.63 1.52 1.58 1.64 1.55
0.92 0.86 0.86 0.81 0.83 1.04 1.22 1.04 1.04 1.00 1.11 1.22 1.29 1.33 1.27 1.19 1.22 1.21 1.26 1.27 1.31 1.52 1.75 1.98 2.03 1.92 2.00 1.93 1.89 1.79 1.80 1.82 1.79 1.84 1.89 1.97 1.97 1.89 1.79 1.79 1.81 1.67 1.60
0.89 0.83 0.85 0.88 0.87 0.95 1.11 0.94 0.90 0.93 1.11 1.23 1.23 1.20 1.28 1.29 1.33 1.40 1.29 1.31 1.23 1.22 1.33 1.36 1.52 1.79 2.00 2.19 2.19 2.10 2.10 2.01 1.89 1.94 1.93 1.92 1.79 1.73 1.66 1.68 1.77 1.60 1.48
1.03 0.95 1.01 1.03 0.96 0.94 1.07 1.01 1.00 0.99 1.12 1.21 1.18 1.22 1.33 1.38 1.60 1.67 1.48 1.49 1.40 1.35 1.34 1.45 1.55 1.70 1.84 1.97 2.15 2.22 2.19 2.17 2.03 1.90 1.80 1.75 1.64 1.68 1.67 1.59 1.58 1.60 1.47
0.96 0.99 0.99 0.93 0.90 0.97 1.12 1.07 1.12 1.16 1.23 1.33 1.31 1.35 1.64 1.63 1.70 1.65 1.47 1.57 1.49 1.33 1.25 1.28 1.33 1.43 1.50 1.62 1.79 1.84 2.04 2.22 2.13 1.95 1.65 1.58 1.55 1.63 1.73 1.60 1.51 1.46 1.41